sat.trackr.live / text

‹ back to catalog

STARLINK-37816

NORAD 69478 · 2026-131A

PAYLOAD ACTIVE UNKNOWN

§ Identity

Operator
Country
US
Launch date
2026-06-11
Launch site
AFWTR
Launch vehicle
Mass (kg)
RCS (m²)

Purposes: comms

External: N2YO · Heavens-Above · Gunter

§ Orbital elements

Epoch: 2026-09-20T01:09:27.957600Z

Period
93.91 min
Inclination
97.2844°
Eccentricity
0.0000940
Mean motion
15.33448490 rev/d
Perigee alt
464.9 km
Apogee alt
466.2 km
Semi-major
6,843.7 km
B*
4.1846e-4
RAAN
284.0018°
Arg perigee
95.5675°
Mean anomaly
264.5675°
Rev number
1,683

§ Raw data

STARLINK-378161 69478U 26131A   26263.04824025  .00013460  00000+0  41846-3 0  99902 69478  97.2844 284.0018 0000940  95.5675 264.5675 15.33448490 16837

JSON: /api/v1/satellites/69478 · /tle

For live sub-satellite position, see the globe view (requires WebGL).

§ Visibility from observer

Set your observer location to see the next 7 days of passes ≥ 10°. The values pass through the URL so the page stays shareable.

No JS? Fill the form by hand. The geolocation button needs JavaScript.